Location: Arveyes
(46.2900°N, 7.0606°E)
Time: 21:28:38
(UTC+00:00)

Daily predictions for brighter satellites

Satellite Brightness Start Highest point End
(mag) Time Altitude Azimuth Time Altitude Azimuth Time Altitude Azimuth
CENTAUR R/B 4.0 18:43:47 10° NW 18:51:46 55° WSW 19:00:22 10° SSE
CZ-2C R/B 2.9 18:50:01 10° N 18:55:12 74° WNW 19:00:26 10° SSW
Cosmos 2058 Rocket 3.7 18:53:54 10° SSE 18:57:49 33° E 19:01:44 10° NNE
DMSP B5D2-2 4.1 18:52:37 10° NNE 18:57:53 73° ESE 19:03:08 10° S
Cosmos 2360 Rocket 2.5 18:52:49 10° NNW 18:58:29 70° WSW 19:04:04 10° SSE
ATLAS 3B R/B 3.2 18:51:52 10° NNW 18:58:38 50° NE 19:05:39 10° ESE
COSMOS 2487 2.7 18:58:19 10° S 19:01:33 43° ESE 19:04:49 10° NNE
Cosmos 1689 Rocket 3.2 18:59:05 10° N 19:01:50 47° WNW 19:04:33 10° SSW
COSMOS 2428 3.2 18:56:23 10° NNW 19:01:56 46° ENE 19:07:26 10° SE
Cosmos 1953 Rocket 3.6 18:58:20 10° N 19:02:41 63° E 19:06:58 10° SSE
USA 186 1.7 18:59:46 10° SSE 19:03:00 79° ENE 19:06:07 10° N
USA 215 4.0 18:59:25 10° E 19:05:36 47° NNE 19:11:48 10° NW
SME Rocket 3.2 19:02:11 10° NNE 19:06:02 88° WNW 19:10:52 10° SSW
Cosmos 1092 Rocket 4.1 18:59:57 10° N 19:06:09 57° ENE 19:12:14 10° SSE
Cosmos 2333 4.3 19:01:15 10° NNW 19:07:04 81° ENE 19:12:48 10° SSE
Cosmos 1833 4.3 19:02:46 10° SSW 19:08:24 86° WNW 19:14:06 10° NNE
Cosmos 1818 4.2 19:06:34 10° S 19:11:20 32° ESE 19:16:08 10° NE
FALCON 9 DEB 3.9 19:09:11 10° SSW 19:12:13 30° SE 19:15:17 10° ENE
SL-16 R/B 4.5 19:10:44 10° NW 19:15:10 24° WSW 19:19:36 10° SSW
ERS-2 2.7 19:11:47 10° N 19:15:24 61° WNW 19:18:59 10° SSW
Cosmos 2219 Rocket 2.3 19:09:45 10° NNW 19:15:27 67° ENE 19:21:06 10° SE
Cosmos 44 3.9 19:11:04 10° S 19:15:44 38° ESE 19:20:39 10° NE
Resurs 01 Rocket 2.7 19:12:45 11° SE 19:16:24 29° ENE 19:20:16 10° N
Cosmos 1455 2.3 19:15:28 10° S 19:19:04 48° E 19:22:42 10° NNE
Cosmos 1825 Rocket 4.3 19:15:26 10° NNW 19:19:44 56° W 19:24:02 10° S
ATLAS 5 CENTAUR R/B 4.0 19:19:25 10° W 19:22:49 23° NNW 19:26:35 10° NNE
Resurs 1-3 3.7 19:23:26 10° SSE 19:27:45 60° ENE 19:32:05 10° N
Cosmos 1633 4.4 19:26:59 10° NNE 19:29:06 15° ENE 19:30:05 14° E
IGS 5A 4.4 19:27:42 16° ESE 19:30:23 31° ENE 19:34:03 10° N
Cosmos 1356 4.5 19:27:37 10° N 19:30:37 28° ENE 19:32:13 19° ESE
Lacrosse 5 rocket 3.5 19:27:14 10° WNW 19:30:41 26° NNW 19:34:19 10° NE
ATLAS 5 CENTAUR R/B 0.6 19:30:04 10° NW 19:31:54 62° SW 19:33:14 20° SSE
Abrixas rocket 3.4 19:32:14 10° SSW 19:32:30 12° S 19:32:30 12° S
Cosmos 405 Rocket 3.4 19:31:15 10° N 19:35:01 37° ENE 19:37:22 19° SE
Cosmos 1428 Rocket 4.5 19:29:35 10° N 19:35:52 75° E 19:42:09 10° SSE
Cosmos 2279 Rocket 4.2 19:35:35 10° SSE 19:41:27 47° E 19:47:20 10° NNE
SJ-6B 3.5 19:37:52 10° S 19:41:29 50° W 19:45:10 10° NNW
Cosmos 2237 Rocket 3.0 19:36:53 10° NNW 19:42:07 37° NE 19:45:36 19° ESE
Meteor 2-10 Rocket 4.0 19:37:47 10° SSW 19:42:57 65° WNW 19:48:24 10° N
Exosat Rocket 3.8 19:36:21 10° NNW 19:43:02 78° ENE 19:47:11 17° SSE
BREEZE-M DEB (TANK) 3.6 19:38:33 10° W 19:43:23 84° S 19:48:44 10° E
BREEZE-M DEB (TANK) 4.0 19:41:57 10° WSW 19:45:07 80° NNW 19:53:42 10° ENE
MOS 1 4.4 19:39:44 10° SSE 19:45:22 80° WSW 19:51:04 10° NNW
SL-8 R/B 3.7 19:41:02 10° WNW 19:45:53 79° SSW 19:48:58 22° ESE
CZ-2C R/B 4.4 19:44:39 10° NNE 19:48:40 32° E 19:50:38 22° SE
Cosmos 405 3.9 19:45:46 10° SSW 19:49:07 50° WNW 19:52:32 10° N
Cosmos 2026 Rocket 4.0 19:43:29 10° N 19:49:35 88° W 19:55:43 10° S
OBJECT-B 2.3 19:46:58 10° SSW 19:49:57 35° W 19:52:58 10° NNW
IRS-1A Rocket 4.5 19:44:43 10° S 19:50:16 72° WSW 19:55:57 10° NNW
Terra 3.8 19:50:06 12° E 19:51:42 14° ENE 19:54:06 10° NNE
BREEZE-M DEB (TANK) 4.3 19:50:23 10° WSW 19:54:43 69° NNW 20:12:05 10° ENE
MetOp-B 4.4 19:52:09 21° SE 19:55:33 52° ENE 20:00:46 10° N
Cosmos 2227 Rocket 3.2 19:57:04 23° ESE 19:57:57 24° ESE 20:02:22 10° NE
SPOT 1/Viking Rocket 4.0 19:58:13 24° SE 20:00:56 45° ENE 20:05:54 10° N
Cosmos 389 Rocket 2.6 20:00:14 30° SSE 20:01:39 52° E 20:05:08 10° NNE
Cosmos 2251 Rocket 3.5 19:56:18 10° SSW 20:01:40 85° ESE 20:07:03 10° NNE
Cosmos 2297 Rocket 2.8 20:02:12 21° SSE 20:05:12 35° ESE 20:10:16 10° NE
Cosmos 2333 Rocket 3.1 20:00:11 10° NW 20:05:39 45° WSW 20:10:56 11° S
Cosmos 1634 Rocket 4.2 19:59:57 10° SSW 20:06:14 75° W 20:12:31 10° N
Cosmos 2266 Rocket 4.5 20:00:41 10° N 20:06:45 43° ENE 20:09:47 26° SE
SPOT 3 Rocket 3.5 20:03:45 20° SSE 20:07:24 84° ENE 20:12:37 10° NNW
Cosmos 2219 3.8 20:05:52 26° SE 20:07:52 33° ESE 20:12:49 10° NE
BREEZE-M DEB (TANK) 1.9 20:05:38 10° WNW 20:07:55 56° NNE 20:08:17 48° ENE
ATLAS 2AS CENTAUR R/B 3.6 20:00:49 10° SW 20:08:40 62° NW 20:16:21 10° NE
Cosmos 1825 3.1 20:05:14 10° NNW 20:08:52 46° W 20:11:59 13° SSW
Cosmos 2142 Rocket 4.5 20:03:58 10° S 20:10:17 85° E 20:16:43 10° N
ARIANE 5 R/B 3.4 20:09:20 30° ESE 20:10:35 36° ENE 20:14:38 10° N
Ariane Rocket 4.0 20:08:09 10° S 20:13:00 45° W 20:17:51 10° NNW
Orbus 7S? 4.1 20:16:47 10° WSW 20:19:41 54° NNW 20:25:16 10° NE
RESURS DK-1 3.3 20:17:44 10° SW 20:21:44 48° WNW 20:25:47 10° NNE
Landsat 7 3.8 20:20:37 29° SSE 20:23:06 86° WSW 20:27:53 10° NNW
Genesis I 4.3 20:20:52 10° NNW 20:24:33 34° NE 20:25:22 30° ENE
USA 245 3.3 20:24:37 51° SE 20:25:20 62° ENE 20:28:44 10° N
Cosmos-2242 3.3 20:25:50 44° ESE 20:26:13 45° E 20:30:22 10° NNE
Cosmos 2180 Rocket 4.4 20:23:19 14° S 20:28:44 83° E 20:34:53 10° N
Cosmos 1655 Rocket 3.9 20:28:25 10° N 20:34:45 79° E 20:37:46 33° SSE
SL-16 R/B 3.1 20:30:53 10° NNW 20:36:08 36° NE 20:37:53 30° E
Cosmos 614 Rocket 4.2 20:31:17 10° SSW 20:36:24 68° WNW 20:41:31 10° NNE
Cosmos 1980 3.7 20:31:49 10° NNW 20:37:32 86° WSW 20:39:45 39° SSE
BREEZE-M DEB (TANK) 4.4 20:34:39 10° W 20:39:27 72° N 20:59:07 10° E
Cosmos 2151 3.0 20:40:05 10° N 20:44:25 82° W 20:45:17 56° S
COSMOS 2428 4.2 20:41:02 10° NW 20:46:00 31° WSW 20:49:50 15° SSW
Meteor 2-3 Rocket 3.7 20:40:43 10° N 20:46:32 81° ENE 20:48:26 44° SSE
Cosmos 2344 4.0 20:39:34 10° SW 20:46:56 64° NW 20:54:58 10° NE
USA 215 3.2 20:45:38 39° SE 20:48:21 79° SW 20:54:57 10° NW
FALCON 9 DEB 4.0 20:45:40 10° W 20:49:01 50° NNW 20:49:45 41° NNE
Meteor 1-27 4.3 20:47:48 46° SE 20:49:11 59° E 20:54:53 10° NNE
ATLAS 3B R/B 3.5 20:42:42 10° NW 20:49:22 46° WSW 20:53:13 25° S
Cosmos 1812 Rocket 4.2 20:47:57 23° SSW 20:50:33 56° WNW 20:54:58 10° N
Resurs 01 Rocket 3.2 20:50:18 18° SSW 20:52:50 31° W 20:56:49 10° NNW
ERS-1 Rocket 2.9 20:54:40 58° ESE 20:55:28 69° ENE 21:00:28 10° N
Cosmos 407 Rocket 3.4 20:53:35 25° SSW 20:56:39 82° WNW 21:01:51 10° NNE
Cosmos 2219 Rocket 4.3 20:54:46 10° NW 20:58:50 21° W 21:02:53 10° SW
Okean 3 Rocket 3.7 20:54:54 10° N 20:59:21 61° ENE 20:59:21 61° ENE
Cosmos 1766 Rocket 3.6 20:59:28 10° N 21:03:29 64° NE 21:03:29 64° NE
Cosmos 1633 3.6 21:00:42 10° NNW 21:04:04 39° W 21:04:10 39° W
CARTOSAT-1 3.5 21:04:22 72° SW 21:04:36 75° WSW 21:08:57 10° NNW
Meteor 1-4 Rocket 4.4 21:10:11 22° NNE 21:10:11 22° NNE 21:11:37 10° NNE
Lacrosse 5 rocket 3.8 21:07:51 10° NW 21:11:02 20° N 21:14:12 10° NE
Cosmos 1954 Rocket 4.0 21:12:17 63° E 21:12:17 63° E 21:17:05 10° NNE
COSMOS 2455 3.1 21:18:15 49° E 21:18:15 49° E 21:23:18 10° NE
Cosmos 1869 4.0 21:18:39 48° N 21:18:39 48° N 21:21:36 10° N
SPOT 5 2.7 21:19:30 75° WSW 21:19:32 75° WSW 21:24:16 10° NNW
Cosmos 1140 Rocket 3.9 21:18:31 28° SW 21:21:09 58° WNW 21:26:14 10° NNE
Spot 2 Rocket 4.2 21:21:42 39° SW 21:22:51 46° W 21:27:45 10° NNW
Cosmos 2237 Rocket 3.1 21:21:00 10° NW 21:26:11 39° WSW 21:27:25 34° SW
SeaSat 1 4.2 21:22:48 10° NE 21:24:38 20° ENE 21:24:38 20° ENE
Terra 1.8 21:28:59 81° NW 21:28:59 81° NW 21:33:34 10° NNW
Timation 1 Rocket 4.2 21:33:38 74° ESE 21:33:39 74° ESE 21:39:37 10° NNE
Cosmos 2082 3.6 21:39:13 72° ENE 21:39:13 72° ENE 21:44:24 10° NNE
Cosmos 2263 Rocket 4.0 21:42:46 18° ENE 21:42:46 18° ENE 21:44:40 10° NE
Cosmos 2227 Rocket 2.7 21:38:45 29° SW 21:41:34 58° WNW 21:47:11 10° NNE
Cosmos 468 Rocket 4.1 21:39:03 10° NNW 21:43:44 70° NNE 21:43:44 70° NNE
ARIANE 5 R/B 4.3 21:46:52 24° W 21:47:07 24° W 21:50:44 10° NW
Cosmos 2297 Rocket 3.3 21:43:50 10° SW 21:49:08 41° NW 21:54:31 10° NNE
Cosmos 2219 4.2 21:47:37 15° WSW 21:51:53 43° NW 21:57:14 10° NNE
Cosmos 841 Rocket 4.3 21:46:59 10° N 21:51:30 42° NE 21:51:30 42° NE
Cosmos 1745 Rocket 4.2 21:50:20 10° N 21:56:33 57° ENE 21:56:33 57° ENE
NOSS 3-1 (A) 4.5 21:54:16 10° NW 22:01:25 54° NE 22:04:04 40° E
Cosmos 1763 Rocket 3.8 21:58:46 10° NNW 22:02:58 60° NW 22:02:58 60° NW
S3M 4.2 22:08:54 61° ENE 22:08:54 61° ENE 22:14:47 10° NNE
SL-16 R/B 3.1 22:15:01 10° NW 22:19:46 39° W 22:19:46 39° W
Cosmos 540 Rocket 4.1 22:18:08 10° NNW 22:22:04 53° NNW 22:22:04 53° NNW
NOSS 3-1 (C) 3.9 22:20:14 10° NW 22:27:45 87° SW 22:28:43 73° SSE
Cosmos 2221 4.3 22:30:07 30° NW 22:30:07 30° NW 22:32:47 10° N
Cosmos 1386 Rocket 4.5 22:29:08 10° N 22:34:38 72° NW 22:34:38 72° NW
Cosmos 44 Rocket 4.2 22:36:36 48° NNW 22:36:36 48° NNW 22:40:56 10° NNE
Aureole 1 Rocket 4.2 22:38:07 55° N 22:38:07 55° N 22:41:51 10° NNE
Cosmos 1553 Rocket 4.3 22:39:11 56° W 22:39:15 56° WNW 22:45:15 10° N
ALOS 2 4.3 22:49:56 32° N 22:49:56 32° N 22:52:19 10° N
Cosmos 1943 3.7 22:44:33 10° NNW 22:48:59 57° NNW 22:48:59 57° NNW
Lacrosse 5 rocket 3.4 22:47:08 10° NW 22:49:47 28° NNW 22:49:47 28° NNW
COSMOS 2455 4.2 23:01:18 26° W 23:03:39 35° NW 23:09:09 10° NNE
SeaSat 1 3.6 23:00:14 10° NNE 23:04:24 39° NW 23:04:24 39° NW
Cosmos 2315 Rocket 4.1 23:10:31 72° N 23:10:31 72° N 23:16:11 10° N
Cosmos 2263 Rocket 2.9 23:24:25 47° NNW 23:24:25 47° NNW 23:29:08 10° NNE
USA 281 3.3 23:33:03 69° ENE 23:33:06 69° ENE 23:39:39 10° NNW
USA 229 DEB 4.3 23:27:32 10° NW 23:33:33 50° W 23:33:33 50° W
USA 229 4.3 23:27:37 10° NW 23:33:40 51° W 23:33:40 51° W
Cosmos 1844 Rocket 3.8 23:39:31 35° ENE 23:39:31 35° ENE 23:42:59 10° NE
Cosmos 2074 Rocket 4.2 23:37:50 10° N 23:43:22 70° NNE 23:43:22 70° NNE
